Wind_Speed
6 6 6 7 8 9 9 10 10 8 9 12 12 11 9 9 11 14 17 18 17 19 18 20 25 24 26 25 20 11 9 14 13 15 13 13 12 13 13 11 12 14 14
8 7 7 7 8 9 10 11 12 13 13 13 17 11 8 7 5 6 13 14 16 18 17 20 20 21 18 14 15 12 9 8 14 17 17 17 14 12 12 11 12 11 10
11 9 8 8 9 9 10 11 13 15 14 15 16 19 16 12 13 10 14 16 15 16 16 17 20 16 16 14 13 11 9 9 13 17 19 16 13 11 11 9 8 8 7
12 11 11 10 11 10 10 11 12 14 16 16 17 17 15 10 12 16 17 18 17 16 14 15 14 15 16 16 12 11 13 13 14 14 15 13 12 11 10 10 8 9 10
13 13 12 12 12 11 11 10 12 12 14 16 17 17 17 15 13 15 16 16 18 18 17 15 12 14 15 12 11 10 13 13 13 12 12 11 9 8 13 11 14 12 13
15 13 14 14 13 12 11 11 12 12 13 14 14 15 16 15 18 18 15 15 15 16 15 14 15 13 12 11 9 12 12 11 11 9 8 6 7 10 12 16 13 14 15
16 15 14 15 15 14 13 12 11 11 12 14 14 13 12 13 13 15 16 14 14 14 13 12 12 11 10 10 10 9 10 9 6 5 5 7 9 14 15 15 17 18 20
17 16 15 16 17 16 15 13 12 10 11 11 10 10 10 10 9 9 10 9 9 9 8 8 7 7 7 6 6 5 4 6 10 10 10 10 10 8 14 15 15 18 20
20 19 17 17 18 18 17 15 14 13 12 11 10 9 8 8 10 10 10 9 8 7 6 5 5 5 7 9 9 9 9 8 12 12 11 12 14 15 13 12 16 16 20
23 21 19 18 19 20 19 17 15 13 13 12 10 9 9 8 11 11 12 10 10 9 8 8 13 10 14 14 10 10 8 6 6 6 10 13 16 18 20 22 18 20 21
24 22 21 19 19 19 19 17 16 15 14 13 11 10 10 10 11 13 15 11 12 12 11 11 11 14 14 12 9 5 5 5 7 9 10 11 11 12 13 16 18 20 22
26 25 23 21 20 20 20 19 17 16 14 14 13 12 12 11 13 16 17 13 11 10 9 8 7 10 10 9 9 9 9 10 9 11 13 14 14 14 13 13 14 17 19
27 27 26 23 21 20 21 19 19 18 18 17 17 15 14 14 13 16 18 18 13 8 5 8 10 7 9 11 12 13 13 11 12 13 14 14 12 11 12 14 16 18 21
29 27 27 26 24 22 21 20 20 20 19 19 18 17 17 16 16 14 19 19 20 17 13 11 11 10 10 9 10 13 14 12 11 12 12 12 12 13 13 12 15 16 19
32 30 29 27 28 25 24 24 23 22 22 21 20 19 19 18 19 18 15 14 13 14 11 9 7 7 8 10 9 8 7 7 8 8 10 9 11 12 13 11 15 14 18
31 32 31 30 29 26 25 23 24 21 26 24 19 19 17 12 14 18 16 12 11 12 10 11 10 7 7 6 5 4 2 1 4 6 7 9 12 13 16 18 14 14 18
34 32 32 31 29 29 28 26 23 26 21 27 26 23 17 13 13 11 10 8 10 12 10 8 7 7 5 3 2 1 3 5 5 5 6 9 12 14 13 16 18 19 20
35 34 34 34 31 30 30 28 26 25 26 25 27 26 24 21 18 13 11 13 9 9 9 8 6 5 6 7 7 8 8 9 10 11 8 7 8 11 14 15 18 18 19
35 34 35 32 34 32 30 29 28 26 24 26 18 12 16 17 18 17 17 13 10 8 8 7 6 9 10 13 15 15 13 12 8 6 7 9 8 9 13 15 17 18 18
33 34 31 32 28 28 28 27 27 26 24 23 23 16 17 17 14 14 11 10 10 11 12 14 14 16 14 14 14 10 6 6 4 2 5 8 9 9 11 13 15 17 18
27 29 32 31 30 28 27 27 25 24 24 23 21 19 19 14 15 16 16 16 17 18 18 20 18 16 14 12 12 7 5 6 7 5 5 6 7 9 10 13 15 16 18
23 26 27 30 29 26 27 25 25 24 23 17 15 17 23 18 20 22 22 21 20 19 17 16 16 17 10 13 11 6 5 6 6 4 5 6 8 10 11 13 14 15 17
22 23 23 26 27 25 23 26 25 24 18 19 22 26 21 23 24 25 25 23 20 21 17 17 14 13 14 10 11 7 6 4 3 4 6 7 9 11 12 14 16 17 18
22 20 21 22 27 26 25 24 19 19 21 22 25 26 26 27 27 27 27 27 28 25 20 15 15 11 12 11 9 8 5 5 4 5 6 8 10 11 12 13 16 17 17
18 18 20 20 20 23 22 24 24 25 25 26 25 27 27 28 29 30 30 31 32 31 24 16 14 14 13 12 11 9 9 8 9 10 7 8 10 12 13 15 17 19 20
18 19 17 22 22 25 27 27 29 31 31 31 31 31 30 28 27 29 29 26 23 18 24 19 17 16 14 12 11 9 8 8 10 9 5 8 12 14 15 18 20 21 21
Wind_Direction
129 110 92 91 71 73 68 64 73 85 107 86 87 118 107 101 105 105 113 120 124 140 146 154 158 155 145 153 160 151 167 165 140 154 151 153 166 169 173 182 200 191 203
140 131 107 104 95 82 80 79 84 96 107 119 110 121 137 131 134 125 130 130 128 143 139 141 150 150 160 178 178 198 188 181 154 154 156 165 170 169 180 193 200 209 206
148 144 133 118 116 94 92 88 81 95 107 116 123 120 119 119 112 118 130 130 128 129 138 142 157 158 164 164 177 177 167 158 155 165 170 169 165 175 184 185 196 201 202
151 148 146 138 136 117 109 105 99 92 99 107 115 125 130 120 112 115 120 121 119 123 136 138 152 159 158 155 155 158 158 153 159 169 171 171 177 188 203 206 214 217 212
157 150 153 151 144 141 128 123 114 110 108 107 107 107 110 112 110 110 109 111 114 118 118 120 128 145 144 146 146 150 151 160 163 166 173 184 185 195 212 226 233 231 231
165 157 158 162 156 156 149 138 132 126 122 122 118 112 103 102 121 118 116 117 116 113 109 113 118 124 129 143 160 166 166 171 178 182 177 206 214 225 229 230 232 230 241
174 165 164 167 167 163 164 160 151 145 135 130 126 121 114 115 114 117 116 120 123 125 127 130 129 131 129 145 147 155 172 185 186 210 260 241 242 228 231 228 233 238 244
180 173 171 172 174 172 171 169 165 161 157 152 144 136 137 146 150 145 136 125 126 127 131 136 142 143 154 150 136 136 163 196 214 222 229 232 232 234 231 238 247 253 258
183 180 178 176 176 179 179 177 176 172 169 170 171 167 161 167 173 171 156 160 154 146 142 137 144 151 175 162 163 171 181 200 213 221 235 240 241 244 238 241 246 249 255
184 184 180 178 178 182 184 185 184 184 183 185 185 186 186 181 187 180 164 163 155 157 157 172 167 174 172 169 170 179 188 201 217 244 256 259 259 258 252 248 249 255 260
184 182 181 180 179 181 181 182 182 186 188 193 192 195 196 189 196 188 171 169 166 165 167 175 186 179 178 182 177 193 213 222 252 255 265 267 263 262 260 259 247 252 266
185 182 181 181 180 179 181 182 184 185 188 189 191 196 199 198 196 196 190 165 171 170 169 175 192 197 203 205 214 227 242 252 261 264 267 270 273 275 277 275 272 269 265
187 184 182 182 184 181 181 181 182 184 188 190 190 193 191 195 201 209 204 199 191 174 175 197 201 208 211 224 232 243 250 255 257 265 271 278 284 292 296 291 288 283 278
189 188 184 183 185 184 186 186 190 189 193 192 190 192 192 193 197 201 208 208 215 220 223 228 236 236 239 227 244 254 250 251 263 277 282 289 288 286 291 294 291 293 298
188 190 189 188 186 187 192 191 195 197 196 194 195 193 191 197 201 196 190 192 201 212 211 215 221 223 229 235 233 232 246 262 274 287 293 300 302 304 303 309 298 295 288
187 191 192 191 189 192 192 195 203 203 205 202 203 201 197 192 188 190 192 191 204 209 202 223 223 224 226 225 223 214 229 238 320 331 333 336 332 332 328 318 312 310 304
192 193 195 199 192 196 196 197 196 211 210 214 213 209 202 190 201 199 176 204 208 206 214 215 199 190 174 161 138 179 122 61 13 10 9 12 360 329 324 324 321 317 316
199 196 199 198 201 200 201 202 203 198 202 215 223 223 229 229 228 219 189 180 190 209 214 209 190 180 148 118 89 72 48 49 32 25 7 1 354 336 322 320 319 325 323
204 204 204 204 206 205 204 205 206 206 205 204 175 195 213 218 220 214 210 211 211 188 177 153 146 129 114 109 111 102 92 78 57 10 354 329 334 326 317 330 328 328 322
209 211 204 211 208 208 213 209 211 209 207 209 185 170 152 141 144 152 155 154 142 138 135 132 121 112 110 118 117 123 119 87 74 20 353 342 336 343 337 332 329 330 331
208 206 209 208 209 210 210 213 211 212 209 207 211 162 174 173 154 140 133 133 132 130 128 124 126 124 128 127 108 92 102 94 66 43 358 353 347 356 346 343 339 337 332
204 206 198 210 215 209 208 211 212 208 211 191 138 144 150 148 141 134 129 124 117 120 120 122 122 117 112 102 95 119 87 77 56 26 5 6 3 359 350 341 334 336 333
200 198 196 194 209 202 198 211 214 210 170 159 154 149 150 142 136 131 125 120 118 116 112 116 112 113 112 112 111 106 97 78 58 34 21 10 358 353 337 337 335 334 334
196 190 194 191 194 196 193 196 184 166 162 162 158 149 143 139 135 130 128 128 127 115 107 113 123 132 123 115 112 101 101 99 60 30 15 3 354 344 337 334 329 331 320
185 185 188 184 167 176 162 165 163 161 158 151 145 141 138 135 133 132 132 137 134 134 133 134 132 127 121 117 114 112 98 87 62 45 8 355 340 331 331 331 329 328 327
161 157 167 163 162 157 155 152 154 151 145 145 143 137 133 128 127 132 132 127 126 132 126 133 133 124 122 117 120 111 96 61 31 21 36 341 335 336 339 335 332 331 332
Height
775 777 778 778 778 778 778 779 779 778 779 777 777 779 781 784 786 789 791 794 797 802 808 811 816 821 824 829 835 838 840 842 843 850 854 858 863 865 867 870 870 873 871
774 777 778 779 779 780 781 782 782 782 783 783 783 783 785 787 789 792 795 797 799 803 806 812 816 820 826 830 834 837 840 841 843 848 854 860 862 862 866 870 871 870 870
773 776 779 781 781 782 783 784 785 786 787 788 788 788 789 791 794 795 797 800 803 805 810 814 819 822 825 829 834 837 838 841 844 849 855 857 858 863 867 867 868 869 868
772 775 779 782 783 784 785 787 788 789 789 791 792 794 794 794 796 798 800 803 805 809 813 815 820 824 828 831 834 837 840 841 845 849 853 854 857 861 864 864 866 866 865
770 774 778 781 784 786 787 789 790 792 793 794 795 797 798 799 800 801 802 805 808 812 815 818 821 824 826 830 833 836 839 842 844 845 849 854 854 858 860 861 862 862 863
769 772 776 779 782 786 788 790 792 794 795 796 797 799 800 802 804 806 808 810 811 814 817 821 824 826 828 831 834 838 840 844 846 847 847 850 851 855 858 860 859 859 859
767 770 774 778 781 785 788 790 792 795 797 799 800 802 803 805 807 809 811 814 817 819 822 825 827 829 832 835 837 839 841 841 843 845 846 849 850 854 856 855 854 853 853
765 768 772 776 779 783 787 790 793 796 798 800 802 804 806 807 809 810 812 815 818 820 822 825 827 829 831 833 833 835 839 841 844 845 848 849 850 851 851 851 851 850 849
760 765 769 772 777 781 784 789 793 796 798 801 803 805 806 808 810 812 814 817 819 821 822 824 826 827 828 831 836 839 841 843 843 844 844 844 844 844 845 846 846 845 840
754 760 765 769 774 778 782 787 791 795 797 800 803 805 806 808 809 811 814 817 819 822 824 825 827 831 832 835 838 840 840 840 840 841 841 841 841 840 840 840 841 838 835
750 756 762 767 771 776 780 785 789 792 795 798 801 804 806 808 809 811 814 817 819 822 825 827 829 830 831 833 835 837 838 839 839 839 840 839 838 837 835 834 834 835 832
746 751 757 764 769 773 778 782 786 790 794 797 799 802 804 806 808 810 813 816 818 821 822 825 827 828 830 832 834 835 836 836 837 836 836 835 834 834 834 833 833 832 830
742 747 753 760 766 770 775 779 783 786 789 792 795 797 800 803 806 808 811 814 816 819 822 823 825 827 829 830 831 831 832 833 833 832 831 830 830 830 831 830 829 828 825
738 744 750 755 761 766 771 775 778 782 784 787 789 792 796 799 803 805 808 811 814 817 819 821 823 824 826 828 828 828 828 830 829 828 827 827 829 828 826 825 822 820 819
732 739 745 750 756 761 765 768 772 776 779 782 785 787 791 794 797 801 805 808 811 813 816 819 820 822 823 823 824 825 827 828 828 827 828 826 825 825 823 821 819 815 815
724 731 737 742 749 754 759 764 768 772 775 779 782 785 787 789 793 797 802 805 807 809 812 813 814 816 817 818 818 821 823 824 826 827 826 825 827 826 827 826 819 815 812
715 721 728 735 739 745 750 755 760 768 771 775 778 782 784 786 791 794 798 800 803 805 806 808 809 812 813 816 818 820 819 824 827 826 826 824 822 825 822 820 819 815 810
709 714 720 726 730 736 741 746 750 754 761 767 770 774 778 782 786 790 794 797 799 801 803 804 806 810 810 813 817 824 828 829 829 828 828 824 821 821 821 817 816 811 809
702 707 712 716 721 726 731 737 742 745 748 754 763 767 771 775 779 784 788 791 791 796 799 804 807 809 814 816 816 818 822 824 824 827 826 826 821 820 819 815 813 812 810
695 700 707 712 717 722 727 730 734 738 742 746 753 760 767 771 776 780 784 787 790 796 800 805 809 811 816 817 817 820 822 817 820 825 826 825 825 820 818 817 814 811 808
687 693 699 706 709 715 720 724 729 733 736 740 746 753 761 766 772 777 782 787 792 796 801 803 808 811 815 818 817 823 826 824 821 823 826 824 824 820 819 817 815 812 811
681 685 691 698 703 707 713 719 723 726 731 735 746 753 759 766 771 776 782 788 793 798 803 807 809 812 820 814 819 825 825 822 823 825 825 823 821 820 819 819 815 813 810
676 679 683 690 700 703 707 715 718 723 728 739 747 753 759 764 770 777 783 789 795 799 806 810 817 818 815 820 817 822 824 825 825 824 823 822 821 819 819 818 815 811 809
669 674 680 684 690 698 702 708 714 723 732 742 747 751 758 765 771 776 782 787 793 799 805 812 813 820 820 819 820 822 824 824 824 824 824 821 820 819 818 816 813 810 807
664 671 677 681 688 695 701 709 717 727 734 741 750 757 763 769 774 778 782 788 791 788 800 813 816 819 820 822 823 823 825 825 823 822 823 821 820 818 815 813 810 807 803
668 672 682 684 691 696 703 710 718 727 733 741 750 758 764 772 780 786 788 790 796 808 800 812 818 819 822 822 823 823 824 824 823 822 821 821 820 817 814 812 808 804 801